• In Belarus
  • List of Countries
  • For 7 days
  • Water Temperature
  • Satellite Maps
  • Weather Map
  • Weather Widgets
  • user-avatar
    Login

    Hourly Weather Eisenstadt

    Today, 21 September, Thursday

    Time Temperature Precipitation Wind Pressure Humidity
    00:00 +7°C° 0 mm 4 mps 723 mmHg 82%
    01:00 +7°C° 0 mm 4 mps 723 mmHg 81%
    02:00 +7°C° 0 mm 5 mps 723 mmHg 81%
    03:00 +7°C° 0 mm 5 mps 723 mmHg 82%
    04:00 +7°C° 0 mm 5 mps 722 mmHg 82%
    05:00 +7°C° 0 mm 5 mps 723 mmHg 81%
    06:00 +7°C° 0 mm 5 mps 723 mmHg 80%
    07:00 +8°C° 0 mm 5 mps 723 mmHg 80%
    08:00 +9°C° 0 mm 5 mps 723 mmHg 74%
    09:00 +11°C° 0 mm 6 mps 723 mmHg 69%
    10:00 +12°C° 0 mm 7 mps 723 mmHg 64%
    11:00 +12°C° 0 mm 7 mps 723 mmHg 62%
    12:00 +13°C° 0 mm 6 mps 723 mmHg 61%
    13:00 +14°C° 0 mm 6 mps 723 mmHg 59%
    14:00 +14°C° 0.1 mm 5 mps 723 mmHg 62%
    15:00 +13°C° 0.1 mm 4 mps 723 mmHg 64%
    16:00 +13°C° 0.1 mm 4 mps 723 mmHg 67%
    17:00 +12°C° 0.1 mm 3 mps 723 mmHg 71%
    18:00 +11°C° 0.1 mm 3 mps 723 mmHg 76%
    19:00 +10°C° 0.1 mm 3 mps 723 mmHg 80%
    20:00 +10°C° 0 mm 3 mps 723 mmHg 81%
    21:00 +9°C° 0 mm 3 mps 723 mmHg 83%
    22:00 +9°C° 0 mm 3 mps 724 mmHg 84%
    23:00 +9°C° 0 mm 3 mps 724 mmHg 85%

    Tomorrow, 22 September, Friday

    Time Temperature Precipitation Wind Pressure Humidity
    00:00 +9°C° 0 mm 3 mps 724 mmHg 85%
    01:00 +8°C° 0 mm 3 mps 724 mmHg 86%
    02:00 +8°C° 0 mm 3 mps 724 mmHg 86%
    03:00 +8°C° 0 mm 3 mps 724 mmHg 86%
    04:00 +8°C° 0 mm 3 mps 724 mmHg 87%
    05:00 +9°C° 0 mm 3 mps 724 mmHg 85%
    06:00 +9°C° 0 mm 3 mps 724 mmHg 84%
    07:00 +10°C° 0 mm 3 mps 725 mmHg 82%
    08:00 +11°C° 0 mm 3 mps 725 mmHg 76%
    09:00 +13°C° 0 mm 3 mps 725 mmHg 70%
    10:00 +14°C° 0 mm 3 mps 725 mmHg 64%
    11:00 +16°C° 0 mm 3 mps 725 mmHg 61%
    12:00 +17°C° 0 mm 3 mps 725 mmHg 58%
    13:00 +18°C° 0 mm 3 mps 725 mmHg 55%
    14:00 +17°C° 0.1 mm 3 mps 725 mmHg 60%
    15:00 +16°C° 0.1 mm 2 mps 725 mmHg 65%
    16:00 +16°C° 0.1 mm 2 mps 725 mmHg 70%
    17:00 +15°C° 0.1 mm 2 mps 725 mmHg 74%
    18:00 +13°C° 0.1 mm 2 mps 725 mmHg 79%
    19:00 +12°C° 0.1 mm 2 mps 725 mmHg 84%
    20:00 +12°C° 0 mm 2 mps 726 mmHg 84%
    21:00 +10°C° 0 mm 2 mps 726 mmHg 85%
    22:00 +10°C° 0 mm 2 mps 726 mmHg 86%
    23:00 +9°C° 0 mm 2 mps 726 mmHg 86%

    Day after tomorrow, 23 September, Saturday

    Time Temperature Precipitation Wind Pressure Humidity
    00:00 +9°C° 0 mm 2 mps 726 mmHg 87%
    01:00 +9°C° 0 mm 2 mps 726 mmHg 87%
    02:00 +9°C° 0 mm 2 mps 726 mmHg 88%
    03:00 +9°C° 0 mm 2 mps 726 mmHg 88%
    04:00 +8°C° 0 mm 2 mps 726 mmHg 89%
    05:00 +9°C° 0 mm 2 mps 726 mmHg 88%
    06:00 +9°C° 0 mm 2 mps 726 mmHg 87%
    07:00 +10°C° 0 mm 2 mps 726 mmHg 85%
    08:00 +12°C° 0 mm 3 mps 726 mmHg 77%
    09:00 +14°C° 0 mm 3 mps 726 mmHg 69%
    10:00 +17°C° 0 mm 3 mps 726 mmHg 61%
    11:00 +17°C° 0 mm 3 mps 726 mmHg 58%
    12:00 +18°C° 0 mm 3 mps 725 mmHg 56%
    13:00 +18°C° 0 mm 3 mps 725 mmHg 54%
    14:00 +18°C° 0.1 mm 3 mps 725 mmHg 59%
    15:00 +17°C° 0.1 mm 3 mps 724 mmHg 64%
    16:00 +16°C° 0.1 mm 2 mps 724 mmHg 69%
    17:00 +15°C° 0.3 mm 2 mps 724 mmHg 75%
    18:00 +14°C° 0.3 mm 2 mps 724 mmHg 80%
    19:00 +13°C° 0.3 mm 2 mps 724 mmHg 86%
    20:00 +13°C° 0.2 mm 2 mps 724 mmHg 87%
    21:00 +12°C° 0.2 mm 2 mps 724 mmHg 88%
    22:00 +12°C° 0.2 mm 2 mps 724 mmHg 89%
    23:00 +12°C° 0.2 mm 2 mps 724 mmHg 89%

    24 September, Sunday

    Time Temperature Precipitation Wind Pressure Humidity
    00:00 +12°C° 0.2 mm 2 mps 724 mmHg 89%
    01:00 +12°C° 0.2 mm 2 mps 723 mmHg 90%
    02:00 +12°C° 0.2 mm 2 mps 723 mmHg 90%
    03:00 +12°C° 0.2 mm 2 mps 723 mmHg 90%
    04:00 +12°C° 0.2 mm 2 mps 723 mmHg 90%
    05:00 +12°C° 0.4 mm 2 mps 723 mmHg 91%
    06:00 +12°C° 0.4 mm 2 mps 723 mmHg 91%
    07:00 +12°C° 0.4 mm 2 mps 723 mmHg 91%
    08:00 +12°C° 0.7 mm 2 mps 723 mmHg 91%
    09:00 +12°C° 0.7 mm 2 mps 723 mmHg 91%
    10:00 +12°C° 0.7 mm 2 mps 723 mmHg 91%
    11:00 +12°C° 1.1 mm 2 mps 723 mmHg 91%
    12:00 +13°C° 1.1 mm 2 mps 723 mmHg 91%
    13:00 +13°C° 1.1 mm 1 mps 723 mmHg 91%
    14:00 +13°C° 0.9 mm 1 mps 723 mmHg 91%
    15:00 +13°C° 0.9 mm 1 mps 723 mmHg 91%
    16:00 +13°C° 0.9 mm 1 mps 723 mmHg 91%
    17:00 +12°C° 0.4 mm 1 mps 723 mmHg 92%
    18:00 +12°C° 0.4 mm 1 mps 723 mmHg 93%
    19:00 +12°C° 0.4 mm 1 mps 723 mmHg 94%
    20:00 +12°C° 0.5 mm 1 mps 723 mmHg 94%
    21:00 +11°C° 0.5 mm 1 mps 723 mmHg 94%
    22:00 +11°C° 0.5 mm 1 mps 723 mmHg 94%
    23:00 +11°C° 0.2 mm 1 mps 723 mmHg 94%

    25 September, Monday

    Time Temperature Precipitation Wind Pressure Humidity
    00:00 +11°C° 0.2 mm 1 mps 723 mmHg 94%
    01:00 +10°C° 0.2 mm 2 mps 723 mmHg 95%
    02:00 +10°C° 0.1 mm 2 mps 723 mmHg 95%
    03:00 +10°C° 0.1 mm 2 mps 723 mmHg 95%
    04:00 +10°C° 0.1 mm 2 mps 723 mmHg 95%
    05:00 +10°C° 0.1 mm 2 mps 724 mmHg 94%
    06:00 +10°C° 0.1 mm 2 mps 724 mmHg 93%
    07:00 +10°C° 0.1 mm 2 mps 724 mmHg 92%
    08:00 +12°C° 0 mm 2 mps 724 mmHg 88%
    09:00 +13°C° 0 mm 2 mps 725 mmHg 84%
    10:00 +15°C° 0 mm 2 mps 725 mmHg 80%
    11:00 +14°C° 0 mm 3 mps 725 mmHg 76%
    12:00 +16°C° 0 mm 3 mps 725 mmHg 72%
    13:00 +17°C° 0 mm 3 mps 725 mmHg 69%
    14:00 +17°C° 0 mm 2 mps 725 mmHg 70%
    15:00 +17°C° 0 mm 2 mps 724 mmHg 72%
    16:00 +16°C° 0 mm 2 mps 724 mmHg 73%
    17:00 +16°C° 0 mm 2 mps 724 mmHg 77%
    18:00 +15°C° 0 mm 1 mps 725 mmHg 81%
    19:00 +14°C° 0 mm 1 mps 725 mmHg 85%
    20:00 +13°C° 0 mm 1 mps 725 mmHg 86%
    21:00 +13°C° 0 mm 1 mps 725 mmHg 87%
    22:00 +12°C° 0 mm 1 mps 725 mmHg 88%
    23:00 +12°C° 0 mm 1 mps 725 mmHg 89%

    26 September, Tuesday

    Time Temperature Precipitation Wind Pressure Humidity
    00:00 +12°C° 0 mm 1 mps 725 mmHg 90%
    01:00 +11°C° 0 mm 1 mps 725 mmHg 91%
    02:00 +11°C° 0 mm 1 mps 724 mmHg 91%
    03:00 +11°C° 0 mm 1 mps 724 mmHg 92%
    04:00 +11°C° 0 mm 1 mps 724 mmHg 92%
    05:00 +11°C° 0 mm 1 mps 725 mmHg 91%
    06:00 +12°C° 0 mm 1 mps 725 mmHg 90%
    07:00 +12°C° 0 mm 1 mps 725 mmHg 89%
    08:00 +14°C° 0 mm 1 mps 725 mmHg 82%
    09:00 +16°C° 0 mm 1 mps 725 mmHg 74%
    10:00 +18°C° 0 mm 2 mps 726 mmHg 67%
    11:00 +19°C° 0.1 mm 2 mps 725 mmHg 64%
    12:00 +20°C° 0.1 mm 2 mps 725 mmHg 61%
    13:00 +21°C° 0.1 mm 3 mps 725 mmHg 58%
    14:00 +21°C° 0.1 mm 2 mps 725 mmHg 60%
    15:00 +21°C° 0.1 mm 2 mps 725 mmHg 62%
    16:00 +20°C° 0.1 mm 2 mps 725 mmHg 64%
    17:00 +19°C° 0.1 mm 2 mps 725 mmHg 69%
    18:00 +18°C° 0.1 mm 1 mps 725 mmHg 74%
    19:00 +15°C° 0.1 mm 1 mps 725 mmHg 79%
    20:00 +15°C° 0.2 mm 1 mps 726 mmHg 81%
    21:00 +14°C° 0.2 mm 1 mps 726 mmHg 82%
    22:00 +14°C° 0.2 mm 1 mps 726 mmHg 83%
    23:00 +13°C° 0 mm 1 mps 726 mmHg 83%
    Show more